This is the latest recevied weather packets stored in our database for station/object K1RFS. If no packets are shown the sender has not sent any weather packets the latest 10 day(s).
| Time | Temp. | Humidity | Pressure | Rain* | Wind** | Luminosity | Snow |
|---|---|---|---|---|---|---|---|
| 1788124395 | 24.44° C | 48% | 1003.1 hPa | 0 mm | - | 78 W/m² | - |
| 1788124091 | 24.44° C | 50% | 1003.2 hPa | 0 mm | - | 97 W/m² | - |
| 1788123790 | 24.44° C | 52% | 1003.2 hPa | 0 mm | - | 110 W/m² | - |
| 1788123488 | 24.44° C | 51% | 1003.2 hPa | 0 mm | - | 68 W/m² | - |
| 1788123187 | 25° C | 52% | 1003.2 hPa | 0 mm | - | 66 W/m² | - |
| 1788122884 | 25° C | 52% | 1003 hPa | 0 mm | - | 154 W/m² | - |
| 1788122582 | 25° C | 52% | 1002.9 hPa | 0 mm | - | 98 W/m² | - |
| 1788122278 | 25.56° C | 50% | 1002.9 hPa | 0 mm | - | 154 W/m² | - |
| 1788121974 | 26.67° C | 49% | 1002.9 hPa | 0 mm | - | 170 W/m² | - |
| 1788121673 | 25° C | 52% | 1003.2 hPa | 0 mm | - | 732 W/m² | - |
| 1788121369 | 24.44° C | 54% | 1003.1 hPa | 0 mm | - | 137 W/m² | - |
| 1788121068 | 23.89° C | 55% | 1003.2 hPa | 0 mm | - | 89 W/m² | - |
| 1788120763 | 23.89° C | 55% | 1003.2 hPa | 0 mm | - | 101 W/m² | - |
| 1788120458 | 23.89° C | 54% | 1003.1 hPa | 0 mm | - | 89 W/m² | - |
| 1788120158 | 24.44° C | 54% | 1003.2 hPa | 0 mm | - | 115 W/m² | - |
| 1788119853 | 24.44° C | 54% | 1003.3 hPa | 0 mm | - | 127 W/m² | - |
| 1788119552 | 24.44° C | 53% | 1003.4 hPa | 0 mm | - | 179 W/m² | - |
| 1788119250 | 26.11° C | 50% | 1003.4 hPa | 0 mm | - | 136 W/m² | - |
| 1788118946 | 26.11° C | 50% | 1003.3 hPa | 0 mm | - | 629 W/m² | - |
| 1788118646 | 26.11° C | 51% | 1003.3 hPa | 0 mm | - | 662 W/m² | - |
| 1788118340 | 26.11° C | 50% | 1003.3 hPa | 0 mm | - | 687 W/m² | - |
| 1788118036 | 25.56° C | 51% | 1003.3 hPa | 0 mm | - | 649 W/m² | - |
| 1788117731 | 25.56° C | 51% | 1003.4 hPa | 0 mm | - | 627 W/m² | - |
| 1788117427 | 25.56° C | 51% | 1003.4 hPa | 0 mm | - | 624 W/m² | - |
| 1788117120 | 25.56° C | 51% | 1003.6 hPa | 0 mm | - | 609 W/m² | - |
* Rain latest hour (hover to see other rain measurements)
** Current wind speed in m/s (hover to see current wind gust speed)